Regional Weather Roundup
Issued by NWS State College, PA

Home | Current Version | Previous Version | Text Only | Print | Product List | Glossary On
Versions: 1 2 3 4 5 6 7 8 9 10 11 12 13 14 15 16 17 18 19 20 21 22 23 24 25 26 27 28 29 30 31 32 33 34 35 36 37 38 39 40 41 42 43 44 45 46 47 48 49 50
000
ASUS41 KCTP 101310
RWRCTP

REGIONAL WEATHER ROUNDUP
NATIONAL WEATHER SERVICE STATE COLLEGE PA
800 AM EST WED FEB 10 2016

Note: "fair" indicates few or no clouds below 12,000 feet with no
significant weather and/or obstructions to visibility.

* = STATION THAT DOES NOT REPORT PRECIPITATION /E.G. RAIN...SNOW...ETC/
    THUNDER OR FOG.

PAZ002>004-007>009-013>016-020>023-029>032-101400-
WESTERN PENNSYLVANIA

CITY           SKY/WX    TMP DP  RH WIND       PRES   REMARKS
ERIE           LGT SNOW  26  19  74 W17G25    29.70R WCI  13
MEADVILLE      SNOW      21  17  84 W13G22    29.67S VSB 1/2 WCI   9
FRANKLIN*      CLOUDY    19  16  86 SW14G20   29.70R WCI   6
NEW CASTLE     LGT SNOW  21  17  84 SW12      29.76R FOG     WCI   9
BEAVER COUNTY  LGT SNOW  21  16  79 W14G21    29.76R WCI   8
BUTLER*        CLOUDY    21  14  73 SW9G20    29.78R WCI  11
PITTSBURGH INT LGT SNOW  20  13  74 SW15      29.76R WCI   6
PITTSBURGH     LGT SNOW  21  14  74 W22G33    29.76R WCI   5
INDIANA*       CLOUDY    21  19  93 W13G20    29.74S FOG     WCI   9
LATROBE        FLURRIES  21  16  79 W17       29.77  WCI   7
WASHINGTON CO* CLOUDY    19  10  68 SW13G24   29.79R WCI   7
$$

PAZ004>006-010>012-017>019-024>028-033>037-041-042-045-046-049>053-101400-
CENTRAL PENNSYLVANIA

CITY           SKY/WX    TMP DP  RH WIND       PRES   REMARKS
BRADFORD       LGT SNOW  21  17  84 W9        29.57S VSB 3/4 WCI  11
DUBOIS         LGT SNOW  20  16  84 W14       29.63R VSB 3/4 WCI   7
CLEARFIELD     LGT SNOW  22  16  78 SW15G21   29.66R WCI   9
JOHNSTOWN      LGT SNOW  18  11  74 W20G28    29.64R WCI   2
ALTOONA        CLOUDY    23  14  68 W16G25    29.69R WCI  10
STATE COLLEGE  MOCLDY    25  18  74 W17       29.68R WCI  11
WILLIAMSPORT   CLOUDY    29  19  66 W15G25    29.65R
SELINSGROVE    CLOUDY    29  18  63 W6        29.69R
FT INDIANTOWN  MOCLDY    28  21  74 W6        29.68R
CAPITAL CITY   CLOUDY    29  20  69 W8        29.71R
HARRISBURG     CLOUDY    30  21  69 W13       29.70R
YORK           CLOUDY    27  20  75 W8        29.71R
$$

PAZ038>040-043-044-047-048-054-055-060>062-067>071-101400-
EASTERN PENNSYLVANIA

CITY           SKY/WX    TMP DP  RH WIND       PRES   REMARKS
SCRANTON       CLOUDY    28  24  85 SW7       29.59R
MOUNT POCONO   MOCLDY    24  20  84 W12       29.52R WCI  13
ALLENTOWN      CLOUDY    30  23  75 W8        29.64R HAZE
QUAKERTOWN*    NOT AVBL
READING        CLOUDY    30  22  72 W10       29.67R
LANCASTER      PTCLDY    27  23  85 W10       29.69R
COATESVILLE    CLOUDY    27  27 100 W8G15     29.68R
POTTSTOWN      CLOUDY    28  25  88 W8        29.68R
BLUE BELL        N/A     30  27  86 CALM      29.66R
DOYLESTOWN     CLOUDY    28  26  92 W7        29.64R
WILLOW GROVE   NOT AVBL
NORTH PHILA    LGT SNOW  31  27  85 W13       29.69R FOG
PHILADELPHIA   LGT SNOW  32  26  78 W14       29.71R
$$



USA.gov is the U.S. government's official web portal to all federal, state and local government web resources and services.